Location: ??????
(41.3164°N, 22.6615°E)
Time: 19:57:07
(UTC+00:00)

Cosmos 1300 - Pass Details

Date: 07 June 2022
Orbit: 506 x 508 km, 82.5° (Epoch: 30 June)

Event Time Altitude Azimuth Distance (km) Brightness Sun altitude
Rises 22:45:26 0° 335° (NNW) 2,617 7.2 -25.7°
Reaches altitude 10° 22:48:02 10° 316° (NW) 1,726 5.8 -25.7°
Enters shadow 22:49:37 16° 293° (WNW) 1,366 5.0 -25.7°
